Weather History for PPIZ - August, 2013

Change the Weather History Date:

Monday, August 19, 2013

  Actual Average Record
Temperature  
Mean Temperature 39 °F -  
Max Temperature 43 °F 45 °F 68 °F (2004)
Min Temperature 35 °F 39 °F 28 °F (2008)
Degree Days  
Heating Degree Days 26    
Moisture  
Dew Point 34 °F    
Average Humidity 83    
Maximum Humidity 93    
Minimum Humidity 71    
Precipitation  
Precipitation 0.00 in - - ()
Sea Level Pressure  
Sea Level Pressure 29.89 in    
Wind  
Wind Speed 16 mph (NE)    
Max Wind Speed 21 mph    
Max Gust Speed 25 mph    
Visibility 10 miles    
Events      
Averages and records for this station are not official NWS values.
T = Trace of Precipitation, MM = Missing Value Source: NWS Daily Summary

Daily Weather History Graph

Daily Weather History Graph

Search for Another Location

Airport or City:

Trip Planner

Search our weather history database for the weather conditions in past years. The results will help you decide how hot, cold, wet, or windy it might be!

Date:

Astronomy

Aug. 19, 2013 Rise Set
Actual Time 6:14 AM AKDT 11:33 PM AKDT
Civil Twilight 4:30 AM AKDT 1:12 AM AKDT
Nautical Twilight Sun does not rise Sun does not rise
Astronomical Twilight Sun does not rise Sun does not rise
Moon 10:18 PM AKDT (8/19) 4:29 AM AKDT (8/19)
Length of Visible Light 20h 41m
Length of Day
17h 19m
Waxing Gibbous, 98% of the Moon is Illuminated
Aug 19
Waxing Gibbous
Aug 20
Full
Aug 28
Last Quarter
Sep 5
New
Sep 12
First Quarter

Hourly Weather History & Observations

Time (AKDT) Temp. Windchill Dew Point Humidity Pressure Visibility Wind Dir Wind Speed Gust Speed Precip Events Conditions
12:56 AM 37.4 °F 28.2 °F 35.6 °F 93% 29.79 in 10.0 mi NNE 16.1 mph - N/A   Overcast
1:06 AM 37.4 °F 28.2 °F 35.6 °F 93% 29.79 in 10.0 mi NNE 16.1 mph - N/A   Overcast
1:56 AM 37.9 °F 29.2 °F 34.9 °F 89% 29.81 in 10.0 mi NNE 15.0 mph - N/A   Overcast
2:56 AM 38.8 °F 30.0 °F 34.0 °F 83% 29.83 in 10.0 mi NNE 16.1 mph - N/A   Overcast
3:56 AM 37.9 °F 29.6 °F 34.0 °F 86% 29.83 in 10.0 mi NNE 13.8 mph - N/A   Overcast
4:56 AM 36.9 °F 28.7 °F 34.9 °F 93% 29.85 in 10.0 mi NNE 12.7 mph - N/A   Overcast
5:56 AM 37.9 °F 28.5 °F 34.0 °F 86% 29.86 in 10.0 mi NE 17.3 mph - N/A   Overcast
6:17 AM 37.4 °F 27.8 °F 33.8 °F 87% 29.85 in 10.0 mi NE 17.3 mph - N/A   Overcast
6:43 AM 35.6 °F 26.6 °F 33.8 °F 93% 29.86 in 10.0 mi NNE 13.8 mph - N/A   Mostly Cloudy
6:56 AM 35.6 °F 26.6 °F 33.8 °F 93% 29.86 in 10.0 mi NE 13.8 mph - N/A   Mostly Cloudy
7:56 AM 36.0 °F 27.1 °F 32.9 °F 89% 29.88 in 10.0 mi NNE 13.8 mph - N/A   Partly Cloudy
8:56 AM 36.9 °F 27.5 °F 32.9 °F 86% 29.89 in 10.0 mi NNE 16.1 mph - N/A   Clear
9:56 AM 37.9 °F 28.9 °F 32.9 °F 82% 29.90 in 10.0 mi NE 16.1 mph - N/A   Scattered Clouds
10:56 AM 37.9 °F 28.5 °F 32.9 °F 82% 29.91 in 10.0 mi NE 17.3 mph - N/A   Scattered Clouds
11:16 AM 39.2 °F 30.2 °F 33.8 °F 81% 29.89 in 10.0 mi NE 17.3 mph - N/A   Mostly Cloudy
11:56 AM 38.8 °F 30.4 °F 34.0 °F 83% 29.91 in 10.0 mi NE 15.0 mph - N/A   Overcast
12:56 PM 39.9 °F 31.1 °F 34.0 °F 79% 29.92 in 10.0 mi NE 17.3 mph 23.0 mph N/A   Overcast
1:56 PM 39.9 °F 31.1 °F 34.0 °F 79% 29.92 in 10.0 mi NE 17.3 mph 24.2 mph N/A   Overcast
2:56 PM 41.9 °F 33.1 °F 34.0 °F 73% 29.92 in 10.0 mi NE 19.6 mph - N/A   Mostly Cloudy
3:56 PM 43.0 °F 34.8 °F 34.9 °F 73% 29.92 in 10.0 mi NNE 18.4 mph - N/A   Mostly Cloudy
4:56 PM 43.0 °F 34.8 °F 34.0 °F 71% 29.92 in 10.0 mi NNE 18.4 mph - N/A   Overcast
5:56 PM 41.9 °F 33.1 °F 34.9 °F 76% 29.93 in 10.0 mi NNE 19.6 mph - N/A   Overcast
6:56 PM 41.9 °F 32.8 °F 36.0 °F 79% 29.93 in 10.0 mi NNE 20.7 mph 25.3 mph N/A   Overcast
7:56 PM 41.0 °F 32.5 °F 34.9 °F 79% 29.93 in 10.0 mi NE 17.3 mph - N/A   Overcast
8:56 PM 41.0 °F 32.2 °F 34.9 °F 79% 29.94 in 10.0 mi NE 18.4 mph - N/A   Overcast
9:56 PM 39.9 °F 31.1 °F 34.0 °F 79% 29.94 in 10.0 mi NE 17.3 mph - N/A   Overcast
10:56 PM 37.9 °F 28.9 °F 34.0 °F 86% 29.94 in 10.0 mi NE 16.1 mph - N/A   Overcast
11:56 PM 36.9 °F 27.8 °F 32.9 °F 86% 29.95 in 10.0 mi ENE 15.0 mph - N/A   Overcast